Location: Oregon Trail
(41.1872°N, 102.0741°W)
Time: 14:47:19
(UTC+00:00)

Abrixas rocket - Pass Details

Date: 19 November 2019
Orbit: 357 x 366 km, 48.4° (Epoch: 13 December)

Event Time Altitude Azimuth Distance (km) Brightness Sun altitude
Exits shadow 13:05:44 - 290° (WNW) 1,390 4.2 -6.9°
Reaches altitude 10° 13:05:53 10° 292° (WNW) 1,337 4.1 -6.9°
Maximum altitude 13:08:23 24° 348° (NNW) 808 3.4 -6.4°
Drops below altitude 10° 13:10:54 10° 45° (NE) 1,343 5.2 -6.0°
Sets 13:13:11 0° 61° (ENE) 2,193 6.5 -5.6°
